Location: Epalinges
(46.5518°N, 6.6683°E)
Time: 18:55:41
(UTC+00:00)

Meteor 1-26 Rocket - Pass Details

Date: 20 June 2021
Orbit: 807 x 928 km, 81.3° (Epoch: 31 July)

Event Time Altitude Azimuth Distance (km) Brightness Sun altitude
Rises 01:47:27 0° 349° (N) 3,487 8.2 -13.9°
Reaches altitude 10° 01:49:53 10° 351° (N) 2,562 7.4 -13.6°
Maximum altitude 01:55:45 81° 79° (ENE) 922 4.4 -13.1°
Drops below altitude 10° 02:01:44 10° 167° (SSE) 2,609 6.4 -12.5°
Enters shadow 02:03:16 - 168° (SSE) 3,185 6.8 -12.4°
